Location: Beuvrequen
(50.8014°N, 1.6652°E)
Time: 03:15:22
(UTC+00:00)

ATLAS 5 CENTAUR R/B - Pass Details

Date: 16 October 2021
Orbit: 497 x 1159 km, 63.4° (Epoch: 25 November)

Event Time Altitude Azimuth Distance (km) Brightness Sun altitude
Rises 20:24:38 0° 248° (WSW) 2,650 5.3 -32.5°
Reaches altitude 10° 20:26:48 10° 257° (WSW) 1,814 4.5 -32.8°
Enters shadow 20:27:39 16° 263° (W) 1,511 4.0 -32.9°
